Погода в Шонле

Вьетнам     21°19′43″N   103°55′44″E
темп.,
°C
ветер,
м/с
пор.,
м/с
влажн.,
%
обл.,
%
осадки,
мм/ч
давл.,
гПа
погр.,
м
29 июля, чт
чт2901:00+21зюз1199100 7.4 100250
04:00+21з1199100 2.3 100232
07:00+21зсз1298100 2.4 100362
10:00+23зюз129495 0.0 1004192
13:00+27с127779 0.3 1002631
16:00+27зсз138455 3.4 1000420
19:00+23юз2193100 6.5 100216
22:00+22зюз2196100 0.1 100424
30 июля, пт
пт3001:00+22зюз1196100 0.2 100324
04:00+21з1297100 0.3 100346
07:00+22зсз1297100 0.5 100467
10:00+23зсз1296100 0.1 1005136
13:00+25ссз2386100 0.3 1003380
16:00+28ссз2373100 0.1 1001857
19:00+23з2292100 0.8 100352
22:00+21з1194100 0.0 100517
31 июля, сб
сб3101:00+21зюз1195100 0.2 100316
04:00+22з1195100 0.4 100235
07:00+22зсз2295100 0.4 100385
10:00+25сз2386100 0.0 1004358
13:00+27зсз1377100 0.3 1002813
16:00+23зсз2396100 2.0 100189
19:00+22зсз1298100 3.1 100261
22:00+21зсз1199100 3.3 100446
1 августа, вс
вс101:00+21зюз01100100 13.3 100252
04:00+21з01100100 9.9 100054
07:00+21з00100100 32.8 100182
10:00+22св0198100 3.9 1002154
13:00+23юв0197100 7.6 1001146
16:00+24юз1291100 2.6 1000353
19:00+22юз1197100 3.2 100115
22:00+22юз1197100 0.0 100321
2 августа, пн
пн201:00+21з1197100 0.0 100234
04:00+21з129821 0.2 100250
07:00+22зсз129739 0.2 1003147
10:00+27ссз237746 0.1 1003882
13:00+30сз126616 0.7 10011264
16:00+30ссв01645 0.4 10001216
19:00+23ююз2291100 2.4 100217
22:00+22юз1194100 0.3 100415